Cape Peony — 3FDX6 — position and weather

sailwx.info

Track history (hours):
 
Tides and Currents Weather Stations Pressure Air Temp Water Temp Dewpoint Dewpoint Depression Visibility Wind Speed Wind Dir Waves Ship Positions

Cape Peony

Last reported at 2016-Oct-02 18:32 UTC. Time now 2016-Dec-03 09:39 UTC.
Position N 49°51' W 004°41'.
Warning: this ship's position is months out of date.

Length 292 m; draft 10.7 m.

Type: Cargo ship. MMSI: 373590000.

Date/timePositionNaut miles runAvg speedWind from/ knotsBaromVisibWave heightAir tempDewpointWater temp
2016-Oct-02 18:32N 49°51' W 004°41'28 9.2
2016-Oct-02 15:30N 49°54' W 003°58'1010.8
2016-Oct-02 14:33N 49°56' W 003°43'2411.8
2016-Oct-02 12:33N 49°58' W 003°06'36 9.1
2016-Oct-02 08:33N 50°07' W 002°11'10110.2
2016-Oct-01 22:33N 50°34' E 000°22'61 8.7
2016-Oct-01 15:33N 51°09' E 001°40'8 7.8
2016-Oct-01 14:33N 51°15' E 001°49'7 7.2
2016-Oct-01 13:33N 51°21' E 001°55'67 7.4
2016-Oct-01 04:29N 51°27' E 003°42'0 0.0
2016-Oct-01 03:32N 51°27' E 003°42'0 0.0
2016-Oct-01 00:32N 51°27' E 003°42'0 0.0
2016-Sep-30 22:32N 51°27' E 003°42'0 0.0
2016-Sep-30 20:32N 51°27' E 003°42'0 0.0
2016-Sep-30 17:32N 51°27' E 003°42'0 0.0
2016-Sep-30 16:32N 51°27' E 003°42'0 0.0
2016-Sep-30 14:32N 51°27' E 003°42'0 0.0
2016-Sep-30 13:32N 51°27' E 003°42'0 0.0
2016-Sep-30 10:32N 51°27' E 003°42'0 0.0
2016-Sep-30 08:32N 51°27' E 003°42'0 0.0
2016-Sep-30 06:32N 51°27' E 003°42'0 0.0
2016-Sep-30 03:32N 51°27' E 003°42'0 0.0
2016-Sep-30 02:32N 51°27' E 003°42'0 0.0
2016-Sep-29 23:32N 51°27' E 003°42'0 0.0
2016-Sep-29 21:32N 51°27' E 003°42'0 0.0
2016-Sep-29 20:29N 51°27' E 003°42'0 0.0
2016-Sep-29 19:32N 51°27' E 003°42'0 0.0
2016-Sep-29 16:29N 51°27' E 003°42'0 0.0
2016-Sep-29 15:32N 51°27' E 003°42'0 0.0
2016-Sep-29 14:32N 51°27' E 003°42'0 0.0
2016-Sep-29 13:32N 51°27' E 003°42'0 0.0
2016-Sep-29 08:32N 51°27' E 003°42'0 0.0
2016-Sep-29 07:33N 51°27' E 003°42'0 0.0
2016-Sep-29 00:33N 51°27' E 003°42'0 0.0
2016-Sep-28 21:32N 51°27' E 003°42'0 0.0
2016-Sep-28 19:32N 51°27' E 003°42'0 0.0
2016-Sep-28 16:32N 51°27' E 003°42'0 0.0
2016-Sep-28 15:29N 51°27' E 003°42'1 0.4
2016-Sep-28 12:33N 51°27' E 003°41'36 9.0
2016-Sep-28 08:33N 51°23' E 002°44'24 4.8
2016-Sep-28 03:33N 51°20' E 002°05'5 5.2
2016-Sep-28 02:34N 51°24' E 001°59'5 4.5
2016-Sep-28 01:34N 51°28' E 002°01'8 3.9
2016-Sep-27 23:33N 51°34' E 002°09'16 3.9
2016-Sep-27 19:33N 51°45' E 002°26'57 6.4
2016-Sep-27 10:33N 52°02' E 003°55'7 0.7
2016-Sep-27 00:31N 51°56' E 004°03'0 0.0
2016-Sep-26 20:31N 51°56' E 004°03'0 0.0
2016-Sep-26 19:31N 51°56' E 004°03'0 0.0
2016-Sep-26 15:31N 51°56' E 004°03'0 0.0
2016-Sep-26 13:32N 51°56' E 004°03'0 0.0
2016-Sep-26 11:31N 51°56' E 004°03'0 0.0
2016-Sep-26 08:31N 51°56' E 004°03'0 0.0
2016-Sep-26 02:31N 51°56' E 004°03'0 0.0
2016-Sep-26 01:32N 51°56' E 004°03'0 0.0
2016-Sep-26 00:31N 51°56' E 004°03'0 0.0
2016-Sep-25 21:32N 51°56' E 004°03'0 0.0
2016-Sep-25 17:31N 51°56' E 004°03'0 0.0
2016-Sep-25 16:32N 51°56' E 004°03'0 0.0
2016-Sep-25 15:32N 51°56' E 004°03'0 0.0
2016-Sep-25 14:32N 51°56' E 004°03'0 0.0
2016-Sep-25 12:32N 51°56' E 004°03'0 0.0
2016-Sep-25 11:31N 51°56' E 004°03'0 0.0
2016-Sep-25 10:31N 51°56' E 004°03'0 0.0
2016-Sep-25 09:32N 51°56' E 004°03'2 0.9
2016-Sep-25 07:33N 51°58' E 004°05'27 9.1
2016-Sep-25 04:33N 51°59' E 003°21'19 4.7
2016-Sep-25 00:34N 51°57' E 002°51'5 2.3
2016-Sep-24 22:33N 51°54' E 002°45'7 7.3
2016-Sep-24 21:34N 51°48' E 002°38'2311.5
2016-Sep-24 19:33N 51°30' E 002°14'1211.7
2016-Sep-24 18:33N 51°21' E 002°01'1212.1
2016-Sep-24 17:33N 51°13' E 001°48'1212.3
2016-Sep-24 16:33N 51°03' E 001°37'2311.3
2016-Sep-24 14:33N 50°42' E 001°21'4110.2
2016-Sep-24 10:33N 50°24' E 000°24'10 9.6
2016-Sep-24 09:33N 50°21' E 000°10'58 9.6
2016-Sep-24 03:33N 50°06' W 001°18'1212.1
2016-Sep-24 02:33N 50°03' W 001°36'1312.9
2016-Sep-24 01:34N 49°59' W 001°55'1413.0
2016-Sep-24 00:29N 49°56' W 002°16'5411.0
2016-Sep-23 19:33N 49°34' W 003°33'2310.0
2016-Sep-23 17:15N 49°22' W 004°04'36 9.5
2016-Sep-23 13:27N 49°04' W 004°51'4010.2
2016-Sep-23 09:33N 48°41' W 005°41'  
Track history (hours):
 
Tides and Currents Weather Stations Pressure Air Temp Water Temp Dewpoint Dewpoint Depression Visibility Wind Speed Wind Dir Waves Ship Positions

Cape Peony

Last reported at 2016-Oct-02 18:32 UTC. Time now 2016-Dec-03 09:39 UTC.
Position N 49°51' W 004°41'.
Warning: this ship's position is months out of date.

Length 292 m; draft 10.7 m.

Type: Cargo ship. MMSI: 373590000.

Date/timePositionNaut miles runAvg speedWind from/ knotsBaromVisibWave heightAir tempDewpointWater temp
2016-Oct-02 18:32N 49°51' W 004°41'28 9.2
2016-Oct-02 15:30N 49°54' W 003°58'1010.8
2016-Oct-02 14:33N 49°56' W 003°43'2411.8
2016-Oct-02 12:33N 49°58' W 003°06'36 9.1
2016-Oct-02 08:33N 50°07' W 002°11'10110.2
2016-Oct-01 22:33N 50°34' E 000°22'61 8.7
2016-Oct-01 15:33N 51°09' E 001°40'8 7.8
2016-Oct-01 14:33N 51°15' E 001°49'7 7.2
2016-Oct-01 13:33N 51°21' E 001°55'67 7.4
2016-Oct-01 04:29N 51°27' E 003°42'0 0.0
2016-Oct-01 03:32N 51°27' E 003°42'0 0.0
2016-Oct-01 00:32N 51°27' E 003°42'0 0.0
2016-Sep-30 22:32N 51°27' E 003°42'0 0.0
2016-Sep-30 20:32N 51°27' E 003°42'0 0.0
2016-Sep-30 17:32N 51°27' E 003°42'0 0.0
2016-Sep-30 16:32N 51°27' E 003°42'0 0.0
2016-Sep-30 14:32N 51°27' E 003°42'0 0.0
2016-Sep-30 13:32N 51°27' E 003°42'0 0.0
2016-Sep-30 10:32N 51°27' E 003°42'0 0.0
2016-Sep-30 08:32N 51°27' E 003°42'0 0.0
2016-Sep-30 06:32N 51°27' E 003°42'0 0.0
2016-Sep-30 03:32N 51°27' E 003°42'0 0.0
2016-Sep-30 02:32N 51°27' E 003°42'0 0.0
2016-Sep-29 23:32N 51°27' E 003°42'0 0.0
2016-Sep-29 21:32N 51°27' E 003°42'0 0.0
2016-Sep-29 20:29N 51°27' E 003°42'0 0.0
2016-Sep-29 19:32N 51°27' E 003°42'0 0.0
2016-Sep-29 16:29N 51°27' E 003°42'0 0.0
2016-Sep-29 15:32N 51°27' E 003°42'0 0.0
2016-Sep-29 14:32N 51°27' E 003°42'0 0.0
2016-Sep-29 13:32N 51°27' E 003°42'0 0.0
2016-Sep-29 08:32N 51°27' E 003°42'0 0.0
2016-Sep-29 07:33N 51°27' E 003°42'0 0.0
2016-Sep-29 00:33N 51°27' E 003°42'0 0.0
2016-Sep-28 21:32N 51°27' E 003°42'0 0.0
2016-Sep-28 19:32N 51°27' E 003°42'0 0.0
2016-Sep-28 16:32N 51°27' E 003°42'0 0.0
2016-Sep-28 15:29N 51°27' E 003°42'1 0.4
2016-Sep-28 12:33N 51°27' E 003°41'36 9.0
2016-Sep-28 08:33N 51°23' E 002°44'24 4.8
2016-Sep-28 03:33N 51°20' E 002°05'5 5.2
2016-Sep-28 02:34N 51°24' E 001°59'5 4.5
2016-Sep-28 01:34N 51°28' E 002°01'8 3.9
2016-Sep-27 23:33N 51°34' E 002°09'16 3.9
2016-Sep-27 19:33N 51°45' E 002°26'57 6.4
2016-Sep-27 10:33N 52°02' E 003°55'7 0.7
2016-Sep-27 00:31N 51°56' E 004°03'0 0.0
2016-Sep-26 20:31N 51°56' E 004°03'0 0.0
2016-Sep-26 19:31N 51°56' E 004°03'0 0.0
2016-Sep-26 15:31N 51°56' E 004°03'0 0.0
2016-Sep-26 13:32N 51°56' E 004°03'0 0.0
2016-Sep-26 11:31N 51°56' E 004°03'0 0.0
2016-Sep-26 08:31N 51°56' E 004°03'0 0.0
2016-Sep-26 02:31N 51°56' E 004°03'0 0.0
2016-Sep-26 01:32N 51°56' E 004°03'0 0.0
2016-Sep-26 00:31N 51°56' E 004°03'0 0.0
2016-Sep-25 21:32N 51°56' E 004°03'0 0.0
2016-Sep-25 17:31N 51°56' E 004°03'0 0.0
2016-Sep-25 16:32N 51°56' E 004°03'0 0.0
2016-Sep-25 15:32N 51°56' E 004°03'0 0.0
2016-Sep-25 14:32N 51°56' E 004°03'0 0.0
2016-Sep-25 12:32N 51°56' E 004°03'0 0.0
2016-Sep-25 11:31N 51°56' E 004°03'0 0.0
2016-Sep-25 10:31N 51°56' E 004°03'0 0.0
2016-Sep-25 09:32N 51°56' E 004°03'2 0.9
2016-Sep-25 07:33N 51°58' E 004°05'27 9.1
2016-Sep-25 04:33N 51°59' E 003°21'19 4.7
2016-Sep-25 00:34N 51°57' E 002°51'5 2.3
2016-Sep-24 22:33N 51°54' E 002°45'7 7.3
2016-Sep-24 21:34N 51°48' E 002°38'2311.5
2016-Sep-24 19:33N 51°30' E 002°14'1211.7
2016-Sep-24 18:33N 51°21' E 002°01'1212.1
2016-Sep-24 17:33N 51°13' E 001°48'1212.3
2016-Sep-24 16:33N 51°03' E 001°37'2311.3
2016-Sep-24 14:33N 50°42' E 001°21'4110.2
2016-Sep-24 10:33N 50°24' E 000°24'10 9.6
2016-Sep-24 09:33N 50°21' E 000°10'58 9.6
2016-Sep-24 03:33N 50°06' W 001°18'1212.1
2016-Sep-24 02:33N 50°03' W 001°36'1312.9
2016-Sep-24 01:34N 49°59' W 001°55'1413.0
2016-Sep-24 00:29N 49°56' W 002°16'5411.0
2016-Sep-23 19:33N 49°34' W 003°33'2310.0
2016-Sep-23 17:15N 49°22' W 004°04'36 9.5
2016-Sep-23 13:27N 49°04' W 004°51'4010.2
2016-Sep-23 09:33N 48°41' W 005°41'  

Dump ship's entire track history